STARLINK-37017, 68108

Orbit data source: Space-Track

STARLINK-37017, 68108 is a payload satellite owned by SpaceX/Seattle (US) in SSO that was launched on Sun, 08 Mar 2026 UTC via an FALCON 9 launch vehicle from the Air Force Western Test Range (AFWTR). Payload-class satellites include a variety of spacecraft equipped with specific instruments for various scientific and technological missions. These include communications satellites like Starlink; space stations such as the ISS; scientific satellites like the Hubble; Earth observation satellites from companies like Planet Labs, Umbra, and HawkEye 360; GPS; miniature CubeSats for education and research; and military/defense satellites.

Loading next visibility...
Identifier
68108, 2026-044H
Orbit
SSO
Country
Flag of USUS
Related business
Manufacturer
SpaceX/Seattle
Mission
Operational spacecraft
Bus & Motor
STARLINK V2MO, Unknown motor
Mass
575 kg wet, ~530 kg dry
Launch date (UTC)
2026-03-08 (1 month ago)
Launch vehicle
FALCON 9
Launch site
Air Force Western Test Range (AFWTR)
Object type
Payload
Rocket body
Debris
Shape & HBR
Unknown shape, 17.7 m
Radar Cross Section
RCS unknown

Expand to show TLE details & history
Last TLE update: 16 hours ago

TLE from 16 hours ago
0 STARLINK-37017
1 68108U 26044H   26104.85243041  .00015835  00000-0  49203-3 0  9992
2 68108  97.2836  66.0227 0002088  97.0923 263.0557 15.33428107  7123
Epoch: 2026-04-14T20:27Z
TLE epoch observation values (Epoch: 2026-04-14T20:27:29.987Z)
Latitude
-0.00004°
Longitude
-83.87497°
Altitude
468.879 km
Speed
7.632 km/s
True Right ascension
04h 24m 05s
True Declination
0° 00' 00"
Sunlit
Object was in daylight at epoch
Visualization orbit readout
Latitude
Unknown
Longitude
Unknown
Altitude
Unknown
Speed
Unknown
Apparent Right ascension
Unknown
Apparent Declination
Unknown
Sunlit
N/A
Visualization observer readout
Local Sidereal Time
19:26:50
Azimuth
Unknown
Elevation
Unknown
Doppler factor
Unknown
Orbital elements
Apogee altitude
463.964 km
Perigee altitude
461.108 km
Semi-major axis
6,840.673 km
Eccentricity
0.00021
Inclination
97.2836°
RAAN
66.0227°
Arg. of periapsis
97.0923°
True anomaly
263.03195°
Mean anomaly
263.0557°
Eccentric anomaly
263.04382°
Mean motion
3.83614 °/min
Orbital period
93.84 mins
BSTAR
0.00049203
Loading maneuver chart data...
Computing Atmospheric mass density...
Loading historical data...
Loading historical data...
Loading historical data...
Loading historical data...
Loading historical data...
Loading historical data...
Loading historical data...

Documentation

Showing up to 5 results
|